Weather in Verkhniy Yashkul

Russia / Republic of Kalmykia     46°29′38″N   44°09′19″E
temp.,
°C
wind,
m/s
gust,
m/s
humid.,
%
clouds,
%
prec.,
mm/h
press.,
hPa
HPBL,
m
26 september, sun
sun2600:00+11wsw712864 0.0 1016374
03:00+11wsw612845 0.0 1017323
06:00+11wsw7128599 0.3 1017402
09:00+15w9126532 0.3 10161195
12:00+15wsw10156698 0.0 10151335
15:00+14wsw111975100 0.3 10131237
18:00+15w121871100 0.1 10121289
21:00+15w111673100 0.8 10111038
27 september, mon
mon2700:00+14wnw8136386 0.4 1011984
03:00+10wnw611730 0.4 1012480
06:00+9wnw612770 0.0 1013443
09:00+13wnw811603 0.0 10131080
12:00+15wnw9114625 0.0 10131773
15:00+16nw9114553 0.0 10131863
18:00+14wnw695088 0.0 10151438
21:00+13nw586097 0.0 1016774
28 september, tue
tue2800:00+13wnw4668100 0.1 1016478
03:00+12nw3576100 0.2 1016361
06:00+11nnw2480100 0.2 1017255
09:00+12nne2275100 0.3 1018354
12:00+13nne2267100 0.1 1019443
15:00+15n225718 0.1 1019897
18:00+13n226173 0.0 102019
21:00+13ne356290 0.1 1021214
29 september, wed
wed2900:00+12ne466498 0.0 1022472
03:00+10ne5771100 0.0 1023362
06:00+9ne5770100 0.0 1024461
09:00+8nne5671100 0.0 1025603
12:00+11nne455490 0.0 10251184
15:00+11n5547100 0.0 10251721
18:00+9nne5651100 0.0 10261064
21:00+8nne475991 0.0 1027414
30 september, thu
thu3000:00+7nne37655 0.0 1027198
03:00+6nne48715 0.0 1028209
06:00+5nne48715 0.0 1030187
09:00+9ne67515 0.0 1031874
12:00+11ne56395 0.0 10311690
15:00+12ne553549 0.0 10301889
18:00+10ne35425 0.0 1031108
21:00+8ne35473 0.0 103295